• In Deutschland
  • Länderverzeichnis
  • Für 7 Tage
  • Wassertemperatur
  • Satellitenkarten
  • Wetterkarte
  • Widgets
  • user-avatar
    Anmelden

    Stündliche Wetter Orvieto

    Heute, 21 Juli, Samstag

    Zeit Temperatur Niederschläge Wind Luftdruck Luftfeuchtigkeit
    00:00 +22°C° 0 mm 1 m/S 740 mmHg 67%
    01:00 +22°C° 0 mm 1 m/S 740 mmHg 68%
    02:00 +22°C° 0 mm 1 m/S 740 mmHg 69%
    03:00 +21°C° 0 mm 1 m/S 740 mmHg 70%
    04:00 +21°C° 0 mm 1 m/S 740 mmHg 70%
    05:00 +22°C° 0 mm 1 m/S 740 mmHg 67%
    06:00 +24°C° 0 mm 2 m/S 740 mmHg 63%
    07:00 +26°C° 0 mm 2 m/S 740 mmHg 53%
    08:00 +27°C° 0,1 mm 3 m/S 740 mmHg 50%
    09:00 +28°C° 0,1 mm 3 m/S 740 mmHg 48%
    10:00 +29°C° 0,1 mm 4 m/S 740 mmHg 46%
    11:00 +32°C° 0 mm 4 m/S 740 mmHg 42%
    12:00 +33°C° 0 mm 4 m/S 740 mmHg 39%
    13:00 +33°C° 0 mm 5 m/S 740 mmHg 39%
    14:00 +34°C° 0 mm 5 m/S 740 mmHg 36%
    15:00 +34°C° 0 mm 6 m/S 739 mmHg 34%
    16:00 +34°C° 0 mm 6 m/S 739 mmHg 32%
    17:00 +33°C° 0 mm 5 m/S 739 mmHg 37%
    18:00 +30°C° 0 mm 4 m/S 739 mmHg 42%
    19:00 +28°C° 0 mm 3 m/S 738 mmHg 47%
    20:00 +27°C° 0 mm 2 m/S 738 mmHg 55%
    21:00 +25°C° 0 mm 2 m/S 738 mmHg 62%
    22:00 +23°C° 0 mm 1 m/S 738 mmHg 69%
    23:00 +22°C° 0 mm 1 m/S 738 mmHg 72%

    Morgen, 22 Juli, Sonntag

    Zeit Temperatur Niederschläge Wind Luftdruck Luftfeuchtigkeit
    00:00 +22°C° 0 mm 1 m/S 738 mmHg 75%
    01:00 +21°C° 0 mm 1 m/S 739 mmHg 77%
    02:00 +21°C° 0 mm 1 m/S 738 mmHg 79%
    03:00 +21°C° 0 mm 1 m/S 738 mmHg 80%
    04:00 +21°C° 0 mm 1 m/S 738 mmHg 82%
    05:00 +22°C° 0 mm 1 m/S 739 mmHg 77%
    06:00 +21°C° 0 mm 0 m/S 739 mmHg 73%
    07:00 +23°C° 0 mm 0 m/S 739 mmHg 69%
    08:00 +27°C° 0 mm 1 m/S 739 mmHg 60%
    09:00 +29°C° 0 mm 1 m/S 740 mmHg 51%
    10:00 +31°C° 0 mm 2 m/S 740 mmHg 42%
    11:00 +32°C° 0 mm 2 m/S 740 mmHg 39%
    12:00 +34°C° 0 mm 3 m/S 740 mmHg 36%
    13:00 +34°C° 0 mm 3 m/S 739 mmHg 32%
    14:00 +34°C° 0 mm 3 m/S 739 mmHg 32%
    15:00 +34°C° 0 mm 4 m/S 739 mmHg 32%
    16:00 +34°C° 0 mm 4 m/S 739 mmHg 32%
    17:00 +32°C° 0 mm 4 m/S 739 mmHg 37%
    18:00 +30°C° 0 mm 3 m/S 739 mmHg 43%
    19:00 +28°C° 0 mm 3 m/S 739 mmHg 49%
    20:00 +26°C° 0,1 mm 2 m/S 739 mmHg 58%
    21:00 +24°C° 0,1 mm 2 m/S 739 mmHg 67%
    22:00 +22°C° 0,1 mm 1 m/S 739 mmHg 77%
    23:00 +22°C° 0,2 mm 1 m/S 739 mmHg 79%

    übermorgen, 23 Juli, Montag

    Zeit Temperatur Niederschläge Wind Luftdruck Luftfeuchtigkeit
    00:00 +21°C° 0,2 mm 1 m/S 739 mmHg 81%
    01:00 +21°C° 0,2 mm 1 m/S 739 mmHg 83%
    02:00 +21°C° 0,5 mm 1 m/S 739 mmHg 84%
    03:00 +20°C° 0,5 mm 1 m/S 738 mmHg 85%
    04:00 +20°C° 0,5 mm 1 m/S 738 mmHg 86%
    05:00 +21°C° 0,4 mm 1 m/S 738 mmHg 83%
    06:00 +22°C° 0,4 mm 1 m/S 738 mmHg 81%
    07:00 +23°C° 0,4 mm 1 m/S 739 mmHg 78%
    08:00 +24°C° 0,1 mm 1 m/S 739 mmHg 69%
    09:00 +26°C° 0,1 mm 2 m/S 739 mmHg 60%
    10:00 +28°C° 0,1 mm 2 m/S 739 mmHg 51%
    11:00 +29°C° 0,2 mm 3 m/S 739 mmHg 48%
    12:00 +30°C° 0,2 mm 3 m/S 739 mmHg 44%
    13:00 +31°C° 0,2 mm 3 m/S 739 mmHg 41%
    14:00 +32°C° 0,1 mm 4 m/S 739 mmHg 43%
    15:00 +30°C° 0,1 mm 4 m/S 739 mmHg 45%
    16:00 +30°C° 0,1 mm 4 m/S 739 mmHg 47%
    17:00 +29°C° 0 mm 4 m/S 739 mmHg 50%
    18:00 +28°C° 0 mm 3 m/S 739 mmHg 52%
    19:00 +27°C° 0 mm 3 m/S 739 mmHg 55%
    20:00 +26°C° 0 mm 3 m/S 739 mmHg 60%
    21:00 +25°C° 0 mm 3 m/S 740 mmHg 64%
    22:00 +22°C° 0 mm 3 m/S 740 mmHg 69%
    23:00 +22°C° 0 mm 3 m/S 740 mmHg 70%

    24 Juli, Dienstag

    Zeit Temperatur Niederschläge Wind Luftdruck Luftfeuchtigkeit
    00:00 +21°C° 0 mm 3 m/S 740 mmHg 71%
    01:00 +21°C° 0 mm 3 m/S 740 mmHg 73%
    02:00 +21°C° 0 mm 3 m/S 740 mmHg 73%
    03:00 +20°C° 0 mm 3 m/S 740 mmHg 73%
    04:00 +20°C° 0 mm 3 m/S 740 mmHg 73%
    05:00 +21°C° 0 mm 3 m/S 740 mmHg 69%
    06:00 +23°C° 0 mm 4 m/S 740 mmHg 64%
    07:00 +25°C° 0 mm 4 m/S 740 mmHg 59%
    08:00 +27°C° 0 mm 4 m/S 740 mmHg 53%
    09:00 +29°C° 0 mm 5 m/S 741 mmHg 46%
    10:00 +32°C° 0 mm 5 m/S 741 mmHg 39%
    11:00 +33°C° 0 mm 5 m/S 741 mmHg 37%
    12:00 +34°C° 0 mm 5 m/S 741 mmHg 34%
    13:00 +35°C° 0 mm 5 m/S 740 mmHg 31%
    14:00 +35°C° 0 mm 5 m/S 740 mmHg 31%
    15:00 +35°C° 0 mm 5 m/S 740 mmHg 30%
    16:00 +35°C° 0 mm 4 m/S 740 mmHg 29%
    17:00 +33°C° 0 mm 4 m/S 740 mmHg 33%
    18:00 +31°C° 0 mm 3 m/S 740 mmHg 37%
    19:00 +29°C° 0 mm 2 m/S 739 mmHg 41%
    20:00 +27°C° 0 mm 2 m/S 740 mmHg 45%
    21:00 +26°C° 0 mm 2 m/S 740 mmHg 50%
    22:00 +24°C° 0 mm 2 m/S 740 mmHg 54%
    23:00 +23°C° 0 mm 2 m/S 740 mmHg 56%

    25 Juli, Mittwoch

    Zeit Temperatur Niederschläge Wind Luftdruck Luftfeuchtigkeit
    00:00 +23°C° 0 mm 2 m/S 740 mmHg 57%
    01:00 +21°C° 0 mm 2 m/S 740 mmHg 59%
    02:00 +22°C° 0 mm 1 m/S 740 mmHg 60%
    03:00 +22°C° 0 mm 1 m/S 740 mmHg 62%
    04:00 +21°C° 0 mm 1 m/S 740 mmHg 63%
    05:00 +23°C° 0 mm 1 m/S 740 mmHg 60%
    06:00 +24°C° 0 mm 1 m/S 740 mmHg 56%
    07:00 +26°C° 0 mm 1 m/S 740 mmHg 53%
    08:00 +28°C° 0 mm 1 m/S 741 mmHg 47%
    09:00 +30°C° 0 mm 1 m/S 741 mmHg 40%
    10:00 +34°C° 0 mm 2 m/S 741 mmHg 34%
    11:00 +35°C° 0 mm 2 m/S 741 mmHg 32%
    12:00 +36°C° 0 mm 2 m/S 741 mmHg 30%
    13:00 +37°C° 0 mm 2 m/S 740 mmHg 28%
    14:00 +37°C° 0 mm 3 m/S 740 mmHg 29%
    15:00 +37°C° 0 mm 3 m/S 740 mmHg 30%
    16:00 +36°C° 0 mm 3 m/S 740 mmHg 31%
    17:00 +35°C° 0 mm 3 m/S 740 mmHg 36%
    18:00 +33°C° 0 mm 3 m/S 740 mmHg 42%
    19:00 +31°C° 0 mm 3 m/S 739 mmHg 48%
    20:00 +29°C° 0 mm 2 m/S 740 mmHg 55%
    21:00 +27°C° 0 mm 2 m/S 740 mmHg 61%
    22:00 +25°C° 0 mm 2 m/S 740 mmHg 68%
    23:00 +25°C° 0,1 mm 1 m/S 740 mmHg 70%

    26 Juli, Donnerstag

    Zeit Temperatur Niederschläge Wind Luftdruck Luftfeuchtigkeit
    00:00 +24°C° 0,1 mm 1 m/S 740 mmHg 72%
    01:00 +24°C° 0,1 mm 1 m/S 740 mmHg 74%
    02:00 +23°C° 0 mm 1 m/S 739 mmHg 75%
    03:00 +23°C° 0 mm 1 m/S 739 mmHg 75%
    04:00 +23°C° 0 mm 1 m/S 739 mmHg 76%
    05:00 +24°C° 0 mm 1 m/S 739 mmHg 71%
    06:00 +25°C° 0 mm 1 m/S 740 mmHg 66%
    07:00 +26°C° 0 mm 1 m/S 740 mmHg 61%
    08:00 +29°C° 0 mm 2 m/S 740 mmHg 52%
    09:00 +31°C° 0 mm 2 m/S 740 mmHg 43%
    10:00 +34°C° 0 mm 2 m/S 740 mmHg 34%
    11:00 +36°C° 0 mm 2 m/S 740 mmHg 31%
    12:00 +37°C° 0 mm 3 m/S 740 mmHg 29%
    13:00 +38°C° 0 mm 3 m/S 740 mmHg 26%
    14:00 +37°C° 0 mm 3 m/S 740 mmHg 27%
    15:00 +37°C° 0 mm 4 m/S 740 mmHg 28%
    16:00 +37°C° 0 mm 4 m/S 739 mmHg 29%
    17:00 +35°C° 0 mm 4 m/S 739 mmHg 34%
    18:00 +33°C° 0 mm 3 m/S 739 mmHg 39%
    19:00 +31°C° 0 mm 3 m/S 739 mmHg 44%
    20:00 +29°C° 0 mm 3 m/S 740 mmHg 48%
    21:00 +27°C° 0 mm 2 m/S 740 mmHg 51%
    22:00 +25°C° 0 mm 2 m/S 740 mmHg 55%
    23:00 +24°C° 0 mm 2 m/S 740 mmHg 57%
    Mehr zeigen